Temperature
10 10 9 10 11 12 13 13 13 14 14 14 13 13 14 15 15 15 15 16 15 15 14 14 13 13 12 12 11 11 11 11 11 11 11 11 11 11 11 11 11 11 11 11
9 9 11 12 12 12 12 12 13 13 14 13 13 13 14 14 14 15 15 15 15 15 14 14 13 12 12 11 11 11 11 11 11 11 11 11 11 10 10 10 10 10 10 10
9 11 12 12 12 12 12 11 12 12 12 12 12 11 13 14 15 15 15 15 15 14 14 13 12 12 11 11 10 10 10 10 10 10 10 10 10 10 10 10 10 10 10 10
10 11 11 11 11 11 11 12 12 12 11 10 11 9 13 13 13 14 14 14 14 14 14 13 12 11 11 10 10 10 10 10 10 10 10 10 10 10 10 9 9 9 9 9
9 10 10 10 11 11 11 12 12 11 10 10 10 9 11 13 13 13 13 14 14 13 13 12 11 11 10 10 9 9 9 9 9 9 9 9 9 9 9 9 9 9 9 9
9 10 10 10 11 11 11 10 10 10 9 8 10 10 11 12 12 13 13 13 13 12 12 11 11 10 9 9 9 9 9 9 9 9 9 9 9 8 8 8 8 8 8 8
8 9 9 9 9 10 9 8 7 7 7 7 11 11 11 12 13 12 12 12 12 11 11 10 10 9 9 9 9 9 8 8 8 8 8 8 8 8 8 8 8 8 8 8
6 7 8 8 8 8 8 8 7 7 8 9 11 10 11 12 12 12 12 11 11 10 10 9 9 8 8 8 8 8 8 8 8 8 8 8 8 8 8 8 7 7 8 8
6 7 8 9 9 9 8 8 9 8 8 8 9 11 10 12 11 11 11 10 10 9 9 8 8 8 8 8 8 7 7 7 7 7 7 7 7 7 7 7 7 7 7 7
6 5 7 8 8 8 8 8 7 7 7 8 10 10 9 9 9 10 9 9 9 9 8 8 7 7 7 7 7 7 7 7 7 7 7 7 7 7 7 7 7 7 7 7
6 4 5 6 6 6 7 7 7 6 7 8 9 9 10 9 9 9 8 9 8 8 7 7 7 7 7 7 7 7 7 7 6 6 7 7 6 6 6 6 6 6 6 6
5 4 4 5 6 6 7 6 6 5 6 7 7 7 9 8 8 8 8 8 8 7 7 7 6 6 6 6 6 6 6 6 6 6 6 6 6 6 6 6 6 6 6 6
5 3 3 4 4 5 5 6 6 5 5 6 6 7 8 8 8 8 8 7 7 6 6 6 6 6 6 5 5 5 5 5 5 5 5 5 5 5 5 5 5 5 5 5
5 3 3 3 4 4 4 4 5 5 4 5 6 6 7 7 7 7 7 7 6 6 5 5 5 5 5 5 5 5 5 5 5 5 5 5 5 5 5 5 5 5 5 5
3 2 3 3 4 4 4 4 5 4 5 5 6 6 6 6 6 6 6 6 6 5 5 4 4 4 4 4 4 4 4 4 4 4 4 4 4 4 4 4 4 4 4 4
2 2 2 3 4 4 4 5 5 5 5 5 5 5 6 6 6 6 6 5 5 4 4 4 4 4 4 4 3 4 4 4 4 4 4 4 4 4 4 4 4 4 4 4
1 1 2 2 4 4 3 4 5 5 5 5 5 5 5 5 5 5 5 5 4 3 3 3 3 3 3 3 3 3 3 3 3 3 3 3 3 3 3 3 3 3 3 3
1 1 1 2 2 2 3 5 5 5 4 5 5 5 5 5 4 4 4 4 3 3 2 2 2 2 2 2 3 3 3 3 3 3 2 2 2 2 2 2 2 2 2 2
1 1 1 1 1 2 3 4 4 3 3 4 4 4 4 4 3 3 3 3 2 2 2 2 2 2 2 2 2 2 2 2 2 2 2 1 2 2 2 2 1 1 1 1
1 0 0 1 1 2 2 3 4 3 2 3 3 3 3 3 1 1 2 2 2 1 1 1 1 1 1 1 1 1 1 1 1 1 1 1 1 1 1 1 1 1 1 1
-0 -0 -0 0 1 1 2 3 3 1 1 2 3 2 2 2 1 1 1 1 1 1 0 1 1 0 0 0 1 1 1 1 0 0 0 0 0 0 0 0 0 0 0 0
-0 -0 -0 0 0 0 1 2 1 1 2 2 2 1 1 1 1 1 0 0 0 -0 -0 -0 -0 -0 -0 -0 -0 -0 -0 -0 -0 -0 -0 0 0 0 0 -0 -0 -0 -0 -0
-0 -0 -0 -0 -0 0 1 1 1 1 1 1 1 0 0 0 0 -0 -0 -0 -0 -0 -1 -1 -1 -1 -1 -1 -1 -1 -1 -1 -1 -1 -0 -0 -0 -0 -0 -0 -1 -1 -1 -1
-0 0 0 -0 -0 0 0 0 0 0 0 0 -0 -0 -0 -1 -1 -1 -1 -1 -1 -1 -1 -1 -1 -1 -1 -1 -1 -1 -1 -1 -1 -1 -1 -1 -1 -1 -1 -1 -1 -1 -1 -2
-1 -1 -1 -1 -0 -0 -0 -1 -1 -1 -1 -1 -1 -1 -1 -1 -1 -1 -1 -1 -2 -2 -2 -2 -2 -2 -2 -2 -2 -2 -2 -2 -2 -2 -2 -2 -2 -2 -2 -2 -2 -2 -2 -2
-2 -2 -2 -2 -1 -1 -1 -2 -2 -1 -1 -1 -1 -1 -2 -2 -2 -2 -2 -2 -2 -2 -2 -2 -2 -3 -2 -3 -2 -2 -2 -2 -2 -2 -2 -2 -2 -2 -2 -2 -3 -3 -3 -3
Wind_Speed
8 7 11 13 16 12 7 8 8 4 3 6 9 11 10 9 8 9 8 8 9 8 8 8 8 7 7 6 6 6 5 5 4 3 3 3 3 2 2 2 3 3 3 3
6 13 14 11 11 13 12 11 8 3 3 4 7 11 10 10 10 9 9 8 8 7 7 8 7 7 6 6 6 6 5 4 4 4 3 3 3 3 2 2 3 4 4 4
12 6 9 13 11 12 13 11 10 6 3 5 6 9 11 10 10 9 8 7 6 7 7 8 7 6 6 5 6 5 4 4 4 4 3 2 1 1 1 2 3 3 4 4
11 10 8 9 11 11 10 8 8 7 4 4 5 5 6 6 9 10 9 7 6 6 6 6 7 6 6 5 4 5 4 4 4 4 4 4 3 3 4 3 3 3 4 4
7 6 9 11 11 10 4 2 5 6 6 6 6 5 6 6 7 9 8 7 6 5 5 6 6 5 5 4 4 4 4 3 3 3 4 4 3 3 2 2 3 3 3 4
9 5 4 6 5 6 3 1 1 3 3 7 10 8 6 6 8 8 6 7 6 6 5 5 5 5 4 4 4 4 4 3 4 4 4 4 4 4 3 3 4 3 3 3
7 8 5 2 2 4 5 4 3 3 5 8 8 8 6 3 4 6 7 7 7 6 5 5 5 5 4 4 3 3 3 3 3 4 3 4 4 4 5 4 4 3 3 3
5 6 9 7 6 5 9 8 6 6 6 4 5 7 3 4 5 7 7 7 7 6 5 5 4 4 4 4 3 3 3 3 3 3 3 3 3 3 3 3 3 3 3 4
4 4 5 7 6 6 7 8 5 3 2 2 6 4 1 3 5 7 7 7 6 5 5 4 4 4 4 3 2 3 2 2 2 2 2 2 2 2 2 2 2 2 2 3
2 2 3 3 3 5 5 4 3 4 4 5 6 7 5 6 5 6 7 6 5 5 5 4 3 3 3 3 2 2 2 1 1 1 1 1 1 1 2 2 2 2 3 3
2 2 2 4 7 8 6 5 4 4 4 4 4 1 2 5 6 6 6 6 6 5 4 4 3 3 3 3 3 2 2 1 1 0 0 0 1 1 1 2 2 3 3 3
3 2 3 4 2 1 5 6 6 5 4 4 2 1 3 6 7 6 6 6 5 5 5 4 3 3 3 3 3 2 2 1 1 1 1 1 1 0 1 2 2 2 2 2
3 3 2 2 2 1 3 4 4 3 1 3 4 3 3 6 6 6 5 5 5 5 4 4 4 4 4 3 3 2 2 2 1 1 1 1 1 1 1 1 2 2 1 2
1 2 4 4 1 3 4 6 6 5 4 4 5 4 2 3 4 4 4 4 5 4 4 4 4 4 4 3 3 3 2 2 2 1 1 1 1 1 1 1 2 1 1 2
1 2 3 5 5 3 5 7 8 8 7 6 4 4 3 2 3 3 4 4 4 4 4 5 4 4 4 5 4 3 3 3 2 2 1 1 2 1 1 2 2 1 1 3
1 2 2 5 5 5 6 7 9 10 9 9 6 6 2 2 3 3 4 4 4 3 4 4 4 4 5 5 4 3 3 3 3 2 2 2 2 2 2 2 2 2 2 2
2 2 2 3 3 3 6 6 8 7 5 6 7 5 3 3 3 3 3 4 4 3 3 3 3 4 4 4 4 4 3 3 2 2 2 2 2 2 2 2 2 2 3 3
2 2 2 2 1 5 3 1 2 3 2 2 2 3 3 4 4 4 4 4 4 4 4 3 3 3 3 4 4 4 3 3 3 3 3 3 2 3 3 2 2 3 3 3
4 3 2 2 3 4 1 1 1 1 2 1 2 2 3 5 4 4 5 6 5 4 3 3 3 3 3 4 4 4 4 3 3 3 3 3 2 2 2 2 3 3 3 3
2 3 3 3 3 3 0 2 2 1 1 2 2 3 2 2 1 1 3 5 5 4 3 3 3 4 4 4 4 4 4 4 4 4 3 3 3 2 2 2 3 3 3 3
2 3 4 4 3 1 1 3 2 2 2 2 3 3 2 1 2 2 4 4 4 3 4 4 3 3 3 4 4 4 4 4 4 4 4 4 3 2 3 3 3 2 2 3
3 2 3 2 3 3 2 2 1 1 2 4 4 4 3 3 4 4 3 3 3 3 3 3 3 3 3 4 4 4 4 4 4 4 4 4 4 3 3 2 3 3 2 3
1 1 1 1 1 1 3 3 3 3 3 4 3 3 3 2 2 3 3 2 3 2 2 3 2 3 3 3 3 3 4 5 5 5 5 4 4 3 3 2 2 3 2 2
1 2 0 0 1 2 4 4 5 5 4 3 3 3 2 2 2 2 2 2 2 3 3 3 3 2 3 3 3 3 4 4 4 4 5 4 4 4 4 3 2 2 2 2
2 1 1 1 1 1 3 5 5 6 6 5 4 3 2 2 2 2 2 2 2 2 3 3 3 3 3 3 3 3 4 4 4 4 4 4 4 4 4 3 3 3 2 2
3 2 2 2 3 2 2 4 5 5 5 5 4 4 4 3 2 2 2 2 2 2 3 3 3 3 3 3 3 3 3 4 4 4 4 4 4 4 3 3 4 6 5 6
Wind_Direction
193 209 213 209 215 238 265 254 251 245 193 210 232 247 248 235 224 226 218 205 201 195 180 165 157 154 153 153 155 158 159 166 160 160 166 174 189 197 195 186 184 201 206 205
200 228 229 224 222 234 252 262 265 255 221 244 257 261 255 241 224 214 214 208 198 186 178 164 155 153 158 157 156 159 166 174 170 170 175 183 190 197 194 190 192 208 211 208
215 222 225 228 228 228 236 241 249 249 253 253 270 269 240 234 223 211 205 202 196 184 178 163 156 155 153 154 159 171 174 178 174 167 162 168 154 191 198 207 210 213 215 209
236 239 237 228 226 227 239 239 250 256 245 244 213 266 244 214 205 204 200 192 193 181 162 155 153 153 154 154 154 163 173 178 178 169 171 176 194 213 220 207 209 216 215 208
230 224 227 232 231 228 239 271 250 249 250 266 237 247 256 210 207 198 189 184 176 156 146 146 145 146 144 142 151 162 167 173 174 178 184 190 206 221 224 213 210 224 226 206
251 261 240 239 245 228 188 144 285 262 243 247 223 221 256 210 203 185 173 160 143 130 126 128 128 127 128 129 141 150 163 181 182 188 194 197 209 218 220 231 222 223 227 223
240 234 218 215 215 197 184 160 170 197 213 235 206 210 236 198 166 151 141 123 116 112 120 127 125 134 137 142 147 161 173 185 188 192 196 206 214 218 223 227 226 227 228 232
213 220 195 199 203 191 204 199 189 195 211 224 202 218 208 129 110 108 111 109 106 110 109 107 119 129 140 147 158 171 178 186 189 196 208 218 216 215 228 230 232 235 231 226
219 235 176 202 211 200 199 222 251 278 286 252 218 196 176 143 121 122 124 118 110 106 106 101 97 113 132 141 147 149 159 173 180 193 214 231 230 225 230 235 238 251 244 239
257 251 204 193 211 234 238 207 189 205 209 234 227 204 186 170 163 143 133 123 108 99 101 98 92 98 119 135 135 134 141 151 161 170 217 255 262 250 233 234 244 259 252 244
243 208 197 185 203 202 201 210 203 207 237 214 226 203 42 140 131 121 110 107 104 103 101 94 92 93 105 103 105 100 97 92 80 55 59 24 283 257 251 244 247 266 258 245
209 211 227 224 192 250 217 206 190 190 223 223 238 280 26 89 96 91 89 85 87 88 88 89 89 78 76 82 80 75 72 70 62 60 68 58 6 341 282 269 270 277 270 267
183 190 202 198 191 226 224 217 211 223 224 225 211 192 79 80 80 82 85 79 84 80 74 72 68 69 63 62 61 50 49 43 34 50 60 38 350 329 284 277 305 298 297 297
212 213 218 225 226 188 214 214 210 203 210 232 229 211 184 116 112 95 85 82 86 78 67 57 44 43 45 48 52 46 33 25 23 29 26 7 323 307 295 295 292 287 299 289
155 236 247 273 286 258 224 214 211 215 220 222 238 234 234 171 131 110 102 94 88 79 62 51 39 27 27 33 35 34 25 19 13 12 356 336 330 332 327 306 293 295 295 289
154 242 269 266 257 263 263 233 221 227 231 237 250 265 220 119 103 104 102 105 97 78 58 45 33 21 22 22 18 16 9 2 360 352 336 338 342 337 322 316 324 322 310 305
185 194 229 251 242 268 258 238 222 220 223 214 229 230 153 117 102 87 89 92 88 77 62 44 24 18 16 13 12 4 349 348 354 348 344 346 351 349 338 334 342 327 315 312
190 203 230 247 207 230 234 38 183 203 238 207 155 145 130 108 89 62 70 86 70 62 51 38 25 12 10 11 9 5 358 3 10 3 353 351 359 347 339 339 326 313 308 305
200 198 224 212 222 248 246 0 22 180 275 293 165 132 113 106 82 57 56 64 59 53 51 35 20 12 14 15 8 7 7 15 15 4 351 343 339 325 321 317 309 310 313 316
168 193 223 227 230 234 64 3 357 88 287 12 98 123 123 104 121 134 68 62 53 39 38 31 20 17 17 11 10 10 5 12 3 347 335 329 325 316 307 299 299 303 308 310
164 197 217 232 236 260 337 327 29 145 228 13 55 84 80 87 106 112 81 63 52 35 27 26 24 23 9 4 10 4 4 3 348 341 333 329 324 317 312 309 307 308 315 318
176 184 197 213 221 242 356 39 84 75 24 33 48 62 71 71 86 89 80 68 51 34 25 20 20 17 8 11 13 5 0 349 347 343 333 328 327 321 322 320 317 318 317 317
178 189 169 168 180 26 41 58 40 35 36 32 39 64 75 70 82 79 69 53 36 29 21 14 13 12 8 10 15 359 342 342 346 340 333 333 336 335 327 318 317 323 324 319
341 341 331 56 50 43 33 27 22 31 39 42 55 64 66 69 76 69 57 33 24 13 11 7 8 1 352 1 8 349 335 339 341 335 333 336 336 336 337 336 334 331 330 324
328 351 342 277 318 24 27 24 28 35 33 40 48 45 42 56 63 52 33 15 11 1 356 358 353 346 340 349 351 344 340 340 335 329 326 329 331 332 334 340 343 331 325 305
336 323 291 284 333 331 359 12 21 32 30 27 34 31 27 35 46 27 6 355 1 354 349 343 343 340 335 338 335 334 332 329 327 323 325 325 324 324 326 334 340 347 335 332
Height
1448 1450 1449 1446 1446 1444 1442 1443 1443 1441 1440 1444 1446 1445 1443 1442 1442 1443 1445 1447 1449 1452 1455 1458 1460 1463 1466 1468 1470 1471 1474 1476 1478 1479 1481 1483 1485 1486 1487 1488 1489 1490 1490 1491
1447 1446 1440 1440 1441 1443 1444 1445 1444 1442 1441 1443 1444 1442 1438 1437 1437 1438 1440 1442 1445 1448 1451 1454 1457 1459 1461 1464 1466 1468 1470 1472 1474 1476 1478 1480 1481 1483 1484 1485 1486 1486 1487 1487
1440 1437 1437 1438 1439 1441 1442 1444 1444 1444 1444 1443 1446 1442 1435 1430 1431 1433 1436 1438 1441 1444 1447 1450 1453 1455 1458 1460 1462 1463 1466 1468 1470 1472 1474 1476 1478 1479 1480 1480 1481 1482 1483 1483
1436 1434 1435 1436 1437 1439 1442 1439 1440 1442 1448 1450 1447 1452 1432 1427 1427 1429 1431 1434 1437 1441 1444 1446 1449 1452 1454 1456 1458 1460 1462 1464 1466 1468 1470 1471 1472 1474 1475 1476 1477 1478 1479 1479
1433 1432 1434 1435 1435 1436 1439 1438 1440 1443 1447 1450 1445 1450 1436 1425 1426 1426 1428 1431 1434 1437 1440 1443 1446 1448 1451 1453 1455 1457 1458 1460 1462 1464 1466 1467 1469 1470 1471 1472 1473 1474 1474 1475
1432 1431 1432 1433 1433 1435 1438 1441 1443 1445 1449 1456 1443 1446 1435 1424 1421 1422 1424 1427 1431 1435 1438 1441 1443 1446 1448 1450 1452 1453 1455 1457 1458 1460 1462 1463 1464 1466 1467 1468 1468 1469 1470 1470
1432 1431 1431 1433 1436 1436 1439 1447 1454 1456 1457 1450 1430 1434 1428 1418 1416 1418 1422 1426 1430 1433 1436 1439 1441 1443 1445 1447 1448 1450 1452 1453 1455 1456 1458 1459 1460 1462 1462 1463 1464 1465 1465 1466
1435 1432 1430 1431 1433 1436 1438 1440 1446 1451 1447 1437 1427 1429 1422 1415 1416 1418 1423 1426 1430 1433 1436 1438 1439 1441 1443 1444 1446 1448 1449 1450 1452 1453 1454 1455 1456 1457 1458 1459 1460 1461 1461 1461
1432 1430 1426 1428 1429 1432 1436 1437 1433 1437 1436 1439 1429 1420 1421 1416 1418 1420 1424 1427 1430 1433 1435 1437 1439 1440 1442 1443 1444 1446 1447 1448 1449 1450 1451 1452 1453 1453 1454 1455 1456 1456 1457 1457
1430 1435 1428 1428 1430 1431 1432 1432 1437 1441 1441 1436 1423 1419 1423 1422 1421 1421 1424 1427 1431 1433 1436 1437 1438 1440 1441 1442 1443 1444 1445 1446 1447 1448 1449 1449 1450 1450 1450 1451 1451 1452 1452 1452
1430 1436 1432 1431 1431 1430 1433 1434 1434 1437 1434 1434 1429 1427 1418 1419 1419 1422 1425 1428 1431 1433 1435 1437 1438 1439 1440 1441 1442 1443 1444 1445 1445 1446 1446 1446 1447 1447 1447 1447 1448 1448 1448 1448
1430 1433 1435 1430 1427 1428 1429 1429 1433 1439 1437 1432 1431 1435 1420 1420 1422 1424 1427 1430 1432 1434 1436 1437 1438 1439 1439 1440 1441 1441 1442 1443 1443 1444 1444 1444 1444 1444 1444 1444 1444 1445 1444 1444
1430 1434 1437 1433 1435 1433 1431 1430 1431 1433 1434 1433 1433 1434 1423 1423 1425 1427 1429 1432 1433 1435 1436 1437 1438 1438 1439 1439 1440 1440 1441 1441 1442 1441 1441 1441 1441 1441 1441 1441 1441 1441 1440 1440
1429 1432 1434 1432 1427 1430 1431 1430 1430 1433 1436 1433 1429 1429 1425 1426 1428 1429 1431 1433 1434 1436 1437 1438 1438 1438 1438 1439 1439 1439 1440 1440 1440 1439 1439 1438 1438 1438 1437 1437 1437 1436 1436 1435
1429 1432 1430 1428 1425 1425 1425 1427 1428 1430 1429 1431 1425 1426 1425 1426 1428 1430 1432 1434 1435 1436 1437 1438 1438 1438 1438 1438 1438 1438 1438 1438 1437 1437 1436 1436 1435 1435 1435 1434 1433 1433 1432 1432
1429 1431 1430 1428 1424 1424 1424 1422 1423 1424 1425 1425 1425 1426 1424 1425 1428 1430 1432 1434 1435 1436 1437 1438 1438 1438 1437 1437 1437 1436 1436 1436 1435 1435 1434 1434 1433 1432 1432 1431 1430 1430 1429 1428
1430 1432 1431 1428 1424 1424 1426 1420 1419 1420 1419 1421 1423 1425 1424 1426 1428 1430 1432 1433 1435 1436 1437 1437 1437 1437 1437 1436 1435 1434 1434 1433 1433 1432 1432 1431 1430 1430 1429 1428 1427 1427 1426 1425
1430 1431 1431 1429 1429 1433 1424 1416 1416 1417 1419 1419 1420 1422 1424 1426 1429 1431 1432 1433 1435 1435 1436 1436 1436 1436 1435 1435 1434 1433 1432 1431 1430 1430 1430 1429 1428 1427 1426 1426 1425 1424 1423 1422
1426 1430 1430 1431 1429 1424 1421 1419 1419 1421 1422 1421 1422 1423 1425 1427 1429 1432 1433 1433 1434 1435 1436 1436 1436 1435 1434 1433 1432 1432 1430 1429 1428 1428 1427 1427 1426 1425 1424 1423 1422 1421 1420 1419
1426 1429 1431 1429 1428 1426 1424 1420 1418 1421 1426 1423 1422 1424 1425 1426 1431 1434 1433 1433 1434 1434 1435 1434 1434 1434 1433 1432 1431 1430 1429 1428 1427 1426 1425 1424 1423 1422 1421 1420 1420 1419 1418 1416
1429 1430 1431 1429 1428 1426 1424 1421 1420 1430 1430 1425 1423 1424 1426 1427 1429 1432 1432 1433 1433 1433 1433 1433 1433 1432 1431 1431 1429 1428 1427 1426 1425 1424 1423 1422 1421 1420 1419 1418 1417 1416 1415 1413
1427 1428 1429 1427 1429 1432 1424 1423 1426 1427 1425 1425 1425 1425 1426 1427 1428 1430 1431 1431 1432 1432 1432 1431 1431 1430 1430 1429 1427 1426 1425 1424 1423 1422 1421 1420 1419 1418 1417 1416 1415 1414 1412 1410
1424 1426 1426 1428 1431 1428 1425 1426 1426 1426 1426 1425 1425 1426 1426 1427 1428 1429 1430 1430 1430 1430 1430 1429 1429 1428 1428 1427 1426 1424 1423 1422 1421 1420 1418 1417 1416 1415 1414 1413 1412 1411 1410 1408
1424 1423 1424 1427 1427 1427 1427 1426 1426 1426 1426 1426 1426 1426 1426 1427 1427 1428 1428 1429 1429 1428 1428 1427 1427 1426 1425 1425 1424 1422 1421 1420 1419 1417 1416 1415 1414 1412 1412 1411 1410 1409 1407 1405
1427 1426 1426 1428 1428 1427 1427 1427 1427 1426 1426 1426 1426 1426 1426 1426 1426 1426 1427 1427 1427 1427 1426 1426 1425 1424 1423 1422 1421 1420 1419 1418 1417 1415 1414 1413 1412 1410 1409 1408 1407 1406 1405 1404
1430 1430 1430 1430 1429 1429 1429 1428 1427 1426 1426 1426 1425 1425 1425 1425 1425 1425 1425 1425 1425 1424 1424 1423 1422 1421 1420 1420 1418 1418 1417 1416 1414 1413 1412 1411 1409 1408 1406 1405 1404 1403 1402 1400